When you browse on this site, cookies collect data to enhance your experience and personalize the content and advertising you see.
Visit our Privacy Policy to learn more. By continuing to use the site, you agree to this use of cookies and data.
  • In Portugal
  • List of Countries
  • For 7 days
  • Water Temperature
  • Satellite Maps
  • Weather Map
  • Weather Widgets
  • user-avatar
    Login

    Hourly Weather Akwizgran

    Today, 18 June, Tuesday

    Time Temperature Precipitation Wind Pressure Humidity
    00:00 +16°C° 0 mm 2 mps 744 mmHg 91%
    01:00 +16°C° 0 mm 2 mps 744 mmHg 94%
    02:00 +16°C° 0 mm 2 mps 744 mmHg 94%
    03:00 +16°C° 0 mm 2 mps 744 mmHg 95%
    04:00 +15°C° 0 mm 2 mps 744 mmHg 95%
    05:00 +17°C° 0 mm 2 mps 744 mmHg 89%
    06:00 +18°C° 0 mm 2 mps 744 mmHg 83%
    07:00 +20°C° 0 mm 3 mps 744 mmHg 77%
    08:00 +21°C° 0 mm 3 mps 744 mmHg 72%
    09:00 +22°C° 0 mm 3 mps 744 mmHg 67%
    10:00 +25°C° 0 mm 3 mps 744 mmHg 62%
    11:00 +25°C° 0 mm 3 mps 744 mmHg 61%
    12:00 +25°C° 0 mm 3 mps 743 mmHg 60%
    13:00 +26°C° 0 mm 4 mps 743 mmHg 59%
    14:00 +26°C° 0 mm 4 mps 743 mmHg 60%
    15:00 +26°C° 0 mm 4 mps 742 mmHg 61%
    16:00 +26°C° 0 mm 4 mps 742 mmHg 62%
    17:00 +25°C° 0.1 mm 3 mps 742 mmHg 67%
    18:00 +22°C° 0.1 mm 3 mps 742 mmHg 73%
    19:00 +21°C° 0.1 mm 3 mps 741 mmHg 79%
    20:00 +21°C° 0 mm 3 mps 741 mmHg 81%
    21:00 +21°C° 0 mm 3 mps 741 mmHg 83%
    22:00 +20°C° 0 mm 3 mps 741 mmHg 85%
    23:00 +19°C° 0 mm 3 mps 741 mmHg 87%

    Tomorrow, 19 June, Wednesday

    Time Temperature Precipitation Wind Pressure Humidity
    00:00 +19°C° 0 mm 3 mps 741 mmHg 90%
    01:00 +18°C° 0 mm 3 mps 741 mmHg 93%
    02:00 +18°C° 0 mm 3 mps 740 mmHg 93%
    03:00 +18°C° 0 mm 3 mps 740 mmHg 93%
    04:00 +18°C° 0 mm 3 mps 740 mmHg 94%
    05:00 +19°C° 0 mm 3 mps 740 mmHg 91%
    06:00 +20°C° 0 mm 3 mps 740 mmHg 87%
    07:00 +21°C° 0 mm 4 mps 740 mmHg 84%
    08:00 +22°C° 0 mm 3 mps 740 mmHg 81%
    09:00 +24°C° 0 mm 3 mps 739 mmHg 78%
    10:00 +25°C° 0 mm 3 mps 739 mmHg 75%
    11:00 +26°C° 0.9 mm 3 mps 739 mmHg 71%
    12:00 +27°C° 0.9 mm 3 mps 739 mmHg 67%
    13:00 +28°C° 0.9 mm 2 mps 738 mmHg 63%
    14:00 +28°C° 0.3 mm 2 mps 738 mmHg 60%
    15:00 +29°C° 0.3 mm 2 mps 738 mmHg 57%
    16:00 +29°C° 0.3 mm 2 mps 737 mmHg 54%
    17:00 +27°C° 0.4 mm 2 mps 737 mmHg 62%
    18:00 +26°C° 0.4 mm 2 mps 737 mmHg 70%
    19:00 +24°C° 0.4 mm 3 mps 737 mmHg 78%
    20:00 +22°C° 0.2 mm 3 mps 737 mmHg 83%
    21:00 +21°C° 0.2 mm 3 mps 737 mmHg 87%
    22:00 +20°C° 0.2 mm 3 mps 737 mmHg 91%
    23:00 +20°C° 0.1 mm 2 mps 737 mmHg 90%

    Day after tomorrow, 20 June, Thursday

    Time Temperature Precipitation Wind Pressure Humidity
    00:00 +20°C° 0.1 mm 2 mps 737 mmHg 89%
    01:00 +21°C° 0.1 mm 1 mps 737 mmHg 88%
    02:00 +20°C° 0.1 mm 1 mps 737 mmHg 88%
    03:00 +20°C° 0.1 mm 1 mps 737 mmHg 89%
    04:00 +19°C° 0.1 mm 1 mps 737 mmHg 89%
    05:00 +21°C° 0.1 mm 1 mps 737 mmHg 85%
    06:00 +22°C° 0.1 mm 1 mps 737 mmHg 81%
    07:00 +24°C° 0.1 mm 1 mps 738 mmHg 77%
    08:00 +25°C° 0.3 mm 1 mps 738 mmHg 72%
    09:00 +26°C° 0.3 mm 1 mps 738 mmHg 67%
    10:00 +28°C° 0.3 mm 2 mps 738 mmHg 63%
    11:00 +29°C° 0.1 mm 2 mps 738 mmHg 58%
    12:00 +29°C° 0.1 mm 2 mps 738 mmHg 53%
    13:00 +30°C° 0.1 mm 2 mps 737 mmHg 49%
    14:00 +30°C° 0 mm 2 mps 737 mmHg 49%
    15:00 +30°C° 0 mm 2 mps 737 mmHg 49%
    16:00 +30°C° 0 mm 1 mps 737 mmHg 48%
    17:00 +29°C° 0 mm 1 mps 737 mmHg 55%
    18:00 +27°C° 0 mm 1 mps 737 mmHg 61%
    19:00 +26°C° 0 mm 1 mps 737 mmHg 67%
    20:00 +25°C° 0 mm 1 mps 737 mmHg 71%
    21:00 +24°C° 0 mm 1 mps 737 mmHg 75%
    22:00 +22°C° 0 mm 1 mps 737 mmHg 79%
    23:00 +22°C° 0 mm 1 mps 737 mmHg 80%

    21 June, Friday

    Time Temperature Precipitation Wind Pressure Humidity
    00:00 +21°C° 0 mm 1 mps 737 mmHg 81%
    01:00 +21°C° 0 mm 1 mps 737 mmHg 82%
    02:00 +21°C° 0 mm 1 mps 737 mmHg 83%
    03:00 +19°C° 0 mm 0 mps 737 mmHg 84%
    04:00 +18°C° 0 mm 0 mps 737 mmHg 85%
    05:00 +22°C° 0 mm 1 mps 737 mmHg 80%
    06:00 +24°C° 0 mm 1 mps 738 mmHg 75%
    07:00 +25°C° 0 mm 1 mps 738 mmHg 69%
    08:00 +27°C° 0.2 mm 1 mps 738 mmHg 65%
    09:00 +28°C° 0.2 mm 2 mps 738 mmHg 61%
    10:00 +29°C° 0.2 mm 2 mps 738 mmHg 57%
    11:00 +30°C° 1 mm 2 mps 738 mmHg 55%
    12:00 +30°C° 1 mm 2 mps 738 mmHg 53%
    13:00 +30°C° 1 mm 3 mps 737 mmHg 51%
    14:00 +29°C° 0.6 mm 3 mps 737 mmHg 60%
    15:00 +27°C° 0.6 mm 3 mps 737 mmHg 68%
    16:00 +26°C° 0.6 mm 4 mps 737 mmHg 77%
    17:00 +25°C° 0.3 mm 3 mps 737 mmHg 80%
    18:00 +24°C° 0.3 mm 3 mps 737 mmHg 83%
    19:00 +22°C° 0.3 mm 3 mps 738 mmHg 87%
    20:00 +21°C° 0.1 mm 3 mps 738 mmHg 90%
    21:00 +20°C° 0.1 mm 3 mps 738 mmHg 93%
    22:00 +19°C° 0.1 mm 3 mps 739 mmHg 96%
    23:00 +19°C° 0.3 mm 3 mps 739 mmHg 96%

    22 June, Saturday

    Time Temperature Precipitation Wind Pressure Humidity
    00:00 +19°C° 0.3 mm 4 mps 739 mmHg 95%
    01:00 +19°C° 0.3 mm 4 mps 739 mmHg 95%
    02:00 +19°C° 0 mm 4 mps 740 mmHg 94%
    03:00 +19°C° 0 mm 4 mps 740 mmHg 94%
    04:00 +18°C° 0 mm 4 mps 740 mmHg 94%
    05:00 +18°C° 0 mm 4 mps 741 mmHg 92%
    06:00 +18°C° 0 mm 4 mps 741 mmHg 90%
    07:00 +19°C° 0 mm 4 mps 742 mmHg 88%
    08:00 +19°C° 0 mm 4 mps 742 mmHg 85%
    09:00 +20°C° 0 mm 3 mps 742 mmHg 82%
    10:00 +20°C° 0 mm 3 mps 742 mmHg 79%
    11:00 +21°C° 0.1 mm 3 mps 742 mmHg 75%
    12:00 +22°C° 0.1 mm 3 mps 742 mmHg 72%
    13:00 +24°C° 0.1 mm 3 mps 742 mmHg 68%
    14:00 +24°C° 0.2 mm 3 mps 742 mmHg 68%
    15:00 +23°C° 0.2 mm 4 mps 742 mmHg 68%
    16:00 +23°C° 0.2 mm 4 mps 742 mmHg 68%
    17:00 +22°C° 0.3 mm 3 mps 742 mmHg 73%
    18:00 +21°C° 0.3 mm 3 mps 742 mmHg 78%
    19:00 +20°C° 0.3 mm 2 mps 742 mmHg 82%
    20:00 +20°C° 0.1 mm 2 mps 742 mmHg 85%
    21:00 +19°C° 0.1 mm 2 mps 743 mmHg 87%
    22:00 +18°C° 0.1 mm 2 mps 743 mmHg 89%
    23:00 +18°C° 0 mm 2 mps 743 mmHg 89%

    23 June, Sunday

    Time Temperature Precipitation Wind Pressure Humidity
    00:00 +18°C° 0 mm 3 mps 743 mmHg 88%
    01:00 +17°C° 0 mm 3 mps 743 mmHg 87%
    02:00 +17°C° 0 mm 3 mps 743 mmHg 88%
    03:00 +16°C° 0 mm 3 mps 743 mmHg 89%
    04:00 +16°C° 0 mm 3 mps 743 mmHg 90%
    05:00 +17°C° 0.1 mm 3 mps 743 mmHg 88%
    06:00 +17°C° 0.1 mm 3 mps 743 mmHg 86%
    07:00 +18°C° 0.1 mm 3 mps 743 mmHg 84%
    08:00 +19°C° 0.1 mm 2 mps 743 mmHg 79%
    09:00 +21°C° 0.1 mm 2 mps 743 mmHg 73%
    10:00 +23°C° 0.1 mm 2 mps 743 mmHg 68%
    11:00 +24°C° 0.3 mm 2 mps 743 mmHg 66%
    12:00 +25°C° 0.3 mm 2 mps 743 mmHg 64%
    13:00 +25°C° 0.3 mm 2 mps 742 mmHg 62%
    14:00 +25°C° 0.5 mm 2 mps 742 mmHg 63%
    15:00 +25°C° 0.5 mm 2 mps 742 mmHg 64%
    16:00 +25°C° 0.5 mm 2 mps 742 mmHg 65%
    17:00 +24°C° 0.1 mm 2 mps 742 mmHg 69%
    18:00 +23°C° 0.1 mm 2 mps 742 mmHg 73%
    19:00 +21°C° 0.1 mm 2 mps 742 mmHg 77%
    20:00 +20°C° 0.2 mm 2 mps 742 mmHg 80%
    21:00 +19°C° 0.2 mm 2 mps 742 mmHg 84%
    22:00 +18°C° 0.2 mm 2 mps 743 mmHg 87%
    23:00 +17°C° 0.4 mm 2 mps 743 mmHg 88%
    Show more